Vertical_Velocity
-5 -2 -1 -1 -2 -5 -7 2 5 1 -5 1 3 3 2 4 3 1 1 2 1 1 0 1 1 2 2 2 3 3 3 3 3 3 2 2 2 1 1 2 2 2 2 2 3 3 3 4 5 5 5 2 -0 -2 -4 -4 -4 -3 -2 -2 -1 -1 -1 -1 -1 -1 -2 -3 -3 -0 4 6 7 8 9 14 20 24 23 17 12 7 4 4 4 5
-4 -3 -1 -1 -2 -5 -10 -1 4 3 -5 -2 0 2 3 4 2 1 2 3 2 1 0 0 1 2 2 2 3 3 2 2 2 2 1 1 1 1 1 1 1 1 2 2 3 3 3 3 4 5 6 5 2 -0 -2 -3 -4 -4 -3 -2 -2 -1 -2 -2 -1 -1 -1 -2 -3 -3 -1 2 4 4 4 7 11 16 19 17 15 12 10 8 7 6
-4 -7 -4 -1 -2 -5 -8 -5 -0 2 1 -2 -1 1 4 3 2 1 3 2 2 2 1 -0 0 1 2 2 3 3 2 2 2 1 1 0 0 0 1 1 1 1 2 2 3 3 3 3 4 5 5 6 5 3 1 -1 -3 -4 -4 -4 -3 -2 -2 -1 -1 -1 -1 -1 -1 -2 -2 -2 -1 -0 1 2 6 9 13 14 15 14 14 13 12 10
-3 -8 -6 -3 -4 -5 -3 -4 -4 -2 1 -0 -0 1 4 2 1 1 3 2 2 2 2 1 0 0 0 1 3 4 3 2 2 1 0 -0 -0 -0 0 0 1 1 2 2 2 2 2 2 3 3 2 4 4 5 4 2 -1 -3 -4 -4 -4 -4 -3 -2 -1 0 0 -0 -0 0 1 -1 -2 -4 -3 -1 2 4 7 10 12 14 15 15 15 14
-1 -5 -6 -4 -5 -7 -5 -3 -3 -4 -2 -1 0 1 2 2 1 1 2 3 3 2 1 1 1 1 -0 1 2 3 4 2 1 0 -0 -0 -0 -1 -1 -0 0 1 1 1 1 0 0 1 1 1 0 -0 1 3 5 4 2 0 -2 -4 -5 -5 -4 -2 -1 0 1 0 -0 0 2 2 0 -2 -5 -4 -1 1 3 6 9 12 13 14 15 15
-1 -2 -4 -4 -4 -5 -6 -5 -4 -3 -4 -4 -1 1 1 1 1 1 1 3 3 2 1 2 2 2 1 1 1 2 2 2 1 -0 -0 -0 -0 -1 -1 -1 -1 -0 0 0 -0 -0 -0 0 1 1 0 -1 -1 -0 1 3 4 3 1 -2 -4 -5 -5 -4 -2 -0 0 0 -0 -0 0 2 2 0 -4 -5 -4 -2 0 3 6 9 10 12 14 15
-5 -2 -1 -6 -6 -4 -3 -5 -4 -2 -4 -6 -5 -2 0 1 2 2 1 2 2 2 2 3 3 3 3 1 1 0 1 0 0 -0 0 -0 -0 -1 -1 -1 -1 -1 -1 -1 -1 -1 -1 -0 1 1 1 -0 -1 -2 -2 -1 1 2 3 1 -2 -4 -5 -3 -2 -1 -0 -1 -1 -1 -1 1 2 2 -1 -4 -5 -5 -2 0 3 5 6 9 11 12
-9 -8 -2 -4 -7 -8 -6 -2 -1 -0 -2 -6 -7 -6 -4 -0 2 3 2 2 3 3 3 3 4 5 4 1 -0 -1 -1 -1 -0 0 -0 -0 -0 -1 -1 -2 -2 -2 -2 -2 -1 -1 -1 -1 -0 1 1 0 -1 -4 -5 -4 -3 -1 2 2 1 -1 -3 -3 -2 -1 -1 -2 -2 -2 -1 1 2 2 1 -2 -4 -5 -4 -2 -0 1 2 5 7 9
-7 -9 -8 -3 -4 -7 -12 -7 -1 3 -0 -4 -5 -6 -6 -4 -1 2 4 4 4 4 4 2 3 3 3 1 -0 -1 -2 -1 -1 -1 -1 -0 -0 -1 -1 -1 -2 -2 -2 -2 -2 -2 -2 -2 -1 -1 -0 -1 -2 -4 -6 -6 -6 -4 -1 1 2 1 -1 -2 -2 -2 -3 -3 -3 -3 -2 0 2 3 2 -0 -2 -4 -5 -4 -2 -1 -1 1 3 5
-3 -4 -7 -6 -3 -2 -7 -9 -5 0 2 -2 -3 -3 -3 -4 -5 -3 0 3 5 5 5 2 -0 -1 -1 2 2 1 -2 -2 -2 -2 -1 -1 -1 -1 -1 -1 -1 -1 -2 -2 -2 -3 -3 -4 -3 -3 -2 -2 -3 -4 -6 -6 -6 -6 -4 -2 0 1 1 -1 -3 -4 -5 -4 -4 -3 -2 -1 1 2 3 2 0 -2 -4 -4 -4 -3 -3 -2 -1 1
-4 -3 -3 -5 -4 -2 -1 -4 -4 -2 -0 -2 -2 -2 0 -1 -3 -6 -7 -2 2 5 5 2 -1 -2 -3 1 3 3 -0 -2 -3 -3 -1 -2 -2 -2 -2 -1 -1 -1 -2 -3 -4 -5 -6 -6 -5 -4 -4 -4 -4 -4 -5 -5 -6 -7 -7 -5 -2 0 2 -0 -3 -5 -6 -5 -4 -4 -3 -1 0 1 2 2 2 0 -1 -3 -4 -4 -4 -4 -3 -2
-4 -4 -4 -4 -3 -2 -2 -2 -2 -2 -1 -2 -3 -4 -2 1 -0 -3 -7 -6 -2 1 3 2 1 0 -0 -1 -0 1 2 -1 -3 -4 -2 -2 -2 -2 -2 -2 -2 -3 -4 -5 -6 -7 -8 -7 -6 -4 -3 -4 -5 -5 -4 -4 -6 -7 -8 -8 -5 -1 2 1 -1 -4 -5 -4 -4 -3 -3 -2 -1 0 1 2 2 2 1 -1 -3 -4 -4 -4 -4 -4
-4 -3 -4 -4 -4 -2 -2 -3 -4 -3 -1 -1 -3 -4 -4 -2 -1 -1 -4 -5 -3 -0 1 0 1 2 3 1 -1 -1 -0 -1 -4 -4 -2 -2 -2 -3 -2 -3 -4 -5 -6 -6 -8 -8 -7 -6 -4 -3 -2 -3 -4 -5 -3 -4 -4 -5 -8 -8 -6 -3 1 1 -0 -2 -4 -4 -3 -3 -3 -3 -2 -0 0 1 2 3 3 1 -1 -2 -4 -4 -4 -4
-4 -3 -3 -3 -3 -3 -2 -3 -4 -4 -2 -1 -2 -3 -4 -3 -2 -2 -3 -4 -2 0 0 -2 -1 1 4 4 1 -2 -3 -2 -2 -2 1 -1 -2 -2 -0 -2 -4 -6 -5 -4 -6 -7 -4 -1 -0 -1 -1 -1 -3 -4 -3 -2 -2 -3 -5 -6 -6 -4 -1 0 0 -1 -2 -3 -3 -3 -3 -3 -3 -2 -0 1 2 3 4 3 1 -0 -2 -3 -4 -4
-2 -2 -2 -2 -2 -2 -2 -3 -4 -4 -2 -1 -2 -2 -3 -3 -2 -2 -2 -3 -1 0 0 -2 -2 0 4 4 2 -0 -1 0 1 2 2 0 0 2 3 -0 -4 -5 -2 -1 -4 -6 -2 3 1 -2 -2 0 -1 -3 -3 -2 -2 -2 -3 -4 -5 -4 -3 -1 -0 0 -1 -2 -2 -3 -3 -4 -4 -3 -1 0 2 3 4 4 3 2 -0 -2 -3 -4
-1 -0 -1 -2 -3 -2 -1 -1 -2 -3 -3 -2 -2 -2 -2 -3 -2 -1 -1 -2 -1 -1 -0 -1 -2 -1 2 4 4 3 4 3 2 1 -0 -1 1 3 5 0 -4 -6 -2 -0 -2 -4 -1 3 1 -2 -2 -0 -1 -3 -3 -3 -3 -2 -1 -2 -3 -4 -3 -2 -1 -0 -0 -1 -2 -2 -3 -4 -4 -3 -2 -0 1 2 3 4 4 3 1 -0 -2 -3
-1 -0 -1 -3 -4 -4 -2 -1 -1 -1 -2 -3 -2 -1 -1 -1 -1 -1 -1 -1 -1 -1 -1 -1 -1 -2 -0 5 8 10 8 2 -3 -6 -5 -4 -1 2 6 1 -5 -7 -4 1 0 -1 -0 1 -0 -2 -1 -1 -1 -2 -2 -3 -3 -2 -1 -1 -2 -2 -3 -3 -2 -1 -0 -1 -1 -1 -2 -2 -3 -2 -2 -1 0 1 2 3 3 3 2 1 0 -1
-1 0 -1 -2 -3 -3 -2 -1 -1 -1 -3 -4 -4 -3 -2 -0 0 -0 -1 -1 -1 -1 -1 -0 -1 -1 -0 4 10 14 10 -1 -9 -11 -6 -2 2 5 7 1 -4 -7 -4 1 2 1 2 -0 -1 -2 -1 -1 -1 -1 -2 -2 -2 -1 -0 -1 -1 -2 -3 -4 -3 -2 -1 -0 -0 -0 -1 -1 -1 -1 -1 -1 -0 0 1 1 2 2 2 2 2 1
-1 1 1 -1 -4 -4 -2 -0 0 -1 -3 -4 -4 -4 -4 -1 0 1 -1 -1 -1 -1 -1 -1 -1 1 2 5 10 11 7 -3 -8 -8 -4 2 7 9 7 1 -4 -6 -2 2 3 2 2 -1 -2 -2 -1 -1 -1 -1 -2 -2 -2 -1 -1 -1 -2 -3 -4 -4 -4 -3 -1 -0 1 1 1 1 1 0 -0 -0 -1 -1 -0 -0 0 0 1 1 2 2
-1 1 3 -0 -4 -6 -4 -1 1 0 -2 -4 -4 -4 -4 -2 -1 -0 -0 -0 -0 -0 -0 -1 -0 1 4 5 8 8 4 -3 -6 -5 -1 4 8 9 6 0 -4 -5 -1 1 2 2 0 -2 -3 -3 -2 -1 -2 -2 -3 -3 -3 -2 -3 -3 -3 -3 -3 -3 -3 -2 -1 1 2 2 2 2 2 1 1 -0 -1 -1 -1 -1 -1 -1 -1 -1 -1 -0
-3 -1 2 1 -2 -6 -6 -3 -0 1 -0 -3 -4 -4 -3 -2 -1 -1 -0 0 0 -0 1 1 1 2 4 5 6 5 1 -2 -4 -3 -0 5 8 9 6 -0 -3 -4 -1 2 2 1 -2 -4 -3 -2 -1 -2 -2 -2 -2 -2 -3 -3 -3 -3 -3 -3 -2 -2 -2 -1 -0 1 2 3 3 3 3 2 1 1 -0 -1 -1 -1 -1 -1 -2 -2 -2 -2
-3 -3 -1 -0 -2 -4 -6 -4 -2 0 1 -1 -3 -4 -3 -2 -2 -2 -0 1 0 0 1 2 2 3 4 4 4 3 0 -1 -2 -1 1 5 9 9 5 -1 -3 -2 1 2 2 -0 -3 -3 -3 -1 -1 -1 -1 -1 -1 -1 -2 -2 -2 -2 -2 -2 -2 -1 -1 -1 -0 1 3 4 4 4 3 2 2 1 1 -0 -1 -0 -1 -1 -2 -2 -2 -2
-2 -3 -3 -2 -3 -3 -4 -3 -2 -0 1 0 -0 -1 -1 -0 -1 -1 -1 0 0 0 1 2 3 4 4 3 3 2 1 0 -0 -0 2 6 9 8 4 -1 -2 -1 2 2 1 -1 -3 -2 -1 -0 0 0 -0 -0 -0 -1 -1 -1 -1 -1 -1 -1 -1 -1 -1 -0 1 2 3 4 4 3 3 2 2 2 1 1 -0 -0 -0 -1 -1 -2 -2 -2
-2 -3 -4 -3 -3 -3 -3 -2 -1 -0 0 1 1 1 1 1 1 0 0 0 0 -0 0 1 3 4 4 3 2 2 2 1 0 1 2 5 7 6 4 0 -1 0 2 2 0 -1 -2 -0 0 0 -0 -0 -0 -0 -0 -1 -1 -1 -1 -1 -1 -1 -1 -1 -0 0 1 2 3 4 4 3 2 2 2 3 2 1 1 0 0 -0 -0 -1 -1 -1
-1 -2 -3 -3 -3 -3 -2 -2 -1 -1 -0 -0 -0 0 1 1 2 2 2 1 0 -0 -0 1 2 4 3 2 3 3 3 2 1 1 2 3 4 4 3 0 -1 0 2 2 0 -1 -1 0 0 -0 -0 -0 -0 -1 -1 -1 -1 -1 -1 -1 -1 -0 0 0 1 2 2 3 3 4 3 3 2 2 3 3 2 2 1 1 1 1 1 0 0 0
-0 -1 -2 -2 -2 -2 -2 -1 -1 -1 -1 -2 -2 -1 -0 1 1 2 2 2 0 -1 -1 1 2 3 3 2 3 3 3 2 2 1 2 2 3 4 3 0 -0 1 3 2 1 -1 -0 0 0 -0 -0 -0 -1 -1 -1 -2 -2 -1 -1 -0 0 1 1 1 2 3 3 4 4 4 3 2 2 2 3 3 3 3 2 2 1 1 1 1 0 0
1 -0 -1 -2 -2 -2 -1 -1 -1 -1 -1 -2 -2 -2 -2 -1 1 2 3 2 0 -1 -1 0 1 2 2 3 3 4 3 3 3 2 1 1 2 3 3 1 0 1 2 2 1 -0 -0 0 -0 -0 -1 -1 -1 -1 -1 -1 -1 -1 -1 -0 0 1 1 2 2 3 3 4 3 3 2 2 2 2 3 3 4 3 3 2 2 1 0 -1 -1 -0
1 0 -1 -1 -1 -1 -1 -1 -0 -0 -1 -2 -2 -2 -2 -1 -0 1 2 2 1 0 0 1 1 2 2 3 4 4 4 3 3 2 2 1 1 2 2 2 1 1 2 2 1 0 -0 -0 -0 -1 -1 -1 -1 -1 -1 -1 -1 -1 -1 -0 0 0 1 1 2 2 3 3 2 2 2 1 2 2 3 4 4 4 4 3 2 1 -1 -2 -2 -1
2 1 -0 -1 -1 -1 -1 -0 -0 -0 -1 -1 -2 -2 -2 -1 -1 0 1 1 1 0 1 1 1 2 2 3 4 4 4 3 2 2 1 0 1 2 2 2 2 2 1 2 1 1 0 -0 -0 -0 -0 -0 -0 -0 -0 -1 -1 -1 -1 -1 -0 1 1 2 2 2 2 2 2 1 1 1 1 2 3 4 5 5 4 3 2 0 -1 -3 -2 -1
2 1 0 -0 -0 -1 -1 -0 -0 -0 -0 -1 -1 -2 -2 -1 -1 -0 -0 -0 -0 0 1 1 1 1 1 2 3 4 3 3 2 1 0 -0 1 1 2 2 2 2 2 2 2 2 1 -0 -0 -0 0 0 0 0 -0 -1 -2 -2 -1 -0 1 1 2 2 2 2 2 2 1 1 1 1 2 3 4 5 5 5 5 3 2 0 -1 -2 -2 -1
1 1 0 0 0 -0 -0 -0 -0 -0 -0 -0 -1 -1 -1 -1 -1 -1 -1 -1 -1 -1 -0 0 1 1 1 1 2 3 3 3 2 1 -1 -0 0 1 2 2 2 3 2 2 2 2 1 0 -0 -0 0 0 0 0 -0 -1 -1 -1 -0 1 2 2 2 2 2 2 1 1 0 0 0 1 2 3 4 5 5 5 4 4 3 1 0 -1 -2 -1
0 0 0 0 0 0 0 0 0 0 0 0 -0 -0 -1 -1 -1 -1 -1 -1 -2 -2 -2 -1 -0 0 1 1 2 2 3 3 2 1 -1 -1 0 1 2 1 2 4 4 3 2 2 2 1 0 -0 0 0 0 0 -0 -1 -1 -0 1 2 2 2 2 2 2 1 0 -0 -0 -0 1 1 2 3 4 4 5 5 4 4 3 2 1 -0 -1 -1
-0 -0 -0 -0 0 1 1 1 1 1 1 1 0 0 0 -0 -0 -0 -1 -1 -2 -2 -2 -2 -1 -0 1 1 2 2 3 3 2 1 -0 -0 1 1 2 1 3 5 6 4 3 2 2 2 1 -0 -0 -0 0 0 0 -0 -0 0 1 2 2 2 2 2 1 1 -0 -0 0 1 2 2 3 4 4 5 5 5 4 4 3 2 1 0 -0 -1
0 -0 -0 -0 0 1 1 1 1 1 1 1 1 1 1 0 0 0 -0 -1 -1 -1 -2 -2 -1 -0 0 1 2 2 2 2 2 1 0 0 1 1 1 1 2 4 6 5 4 2 2 2 1 0 -0 0 0 0 0 0 0 1 2 2 2 2 2 1 1 0 -0 0 1 2 3 4 4 5 5 5 5 5 4 4 3 2 1 0 -0 -0
0 -0 -0 -0 0 1 1 1 1 1 1 1 1 0 0 0 0 0 0 -0 -0 -1 -1 -1 -1 -0 -0 0 1 1 2 2 1 1 -0 -0 0 0 -0 1 1 2 4 5 4 3 2 2 1 1 0 0 0 0 -0 0 1 1 2 2 2 2 2 1 0 0 0 1 2 2 3 4 4 4 4 4 4 4 4 3 2 1 -0 -1 -1 -1
-0 -0 -0 0 0 1 1 1 1 1 0 0 -0 -0 -0 -0 -0 -0 -0 -0 -0 -0 -1 -1 -0 -0 1 1 1 1 1 2 1 0 -1 -1 -1 -1 -1 0 1 1 1 2 3 3 2 2 1 1 0 0 0 -0 -0 0 1 2 2 2 2 2 1 1 0 1 1 1 2 2 3 4 4 4 4 4 4 3 3 2 1 1 -0 -1 -2 -2
-0 -0 -0 0 0 0 1 1 0 -0 -0 -0 -1 -1 -1 -1 -1 -1 -0 0 0 0 0 0 1 1 1 1 1 1 1 1 1 1 -0 -0 -0 -0 -0 0 1 1 1 1 1 2 2 1 1 1 0 -0 -0 -0 -0 1 2 2 2 2 2 1 1 1 1 1 1 1 1 2 3 4 4 3 3 3 3 2 2 1 1 0 -0 -1 -2 -2
-1 -0 -0 -0 0 0 0 0 0 1 1 1 1 2 2 1 1 1 2 2 2 2 2 1 1 1 1 1 1 1 2 2 2 2 1 1 1 1 0 1 2 2 1 1 1 1 1 1 1 0 -0 -0 -0 -0 -0 1 1 2 1 2 2 1 1 1 1 1 1 1 2 2 3 4 3 3 2 2 2 2 1 1 1 0 0 -0 -1 -2
-1 -0 -0 -0 -0 0 0 1 2 3 4 4 5 4 4 3 3 3 3 2 2 2 2 1 1 1 0 1 1 1 2 2 3 3 2 2 2 2 1 1 1 1 1 1 1 1 1 0 0 -0 -1 -1 -1 -0 -0 1 1 2 2 2 2 2 1 1 1 1 1 2 2 3 3 3 3 2 2 2 2 2 1 1 1 1 2 2 2 1
-1 -0 -0 -0 -0 0 1 1 2 2 3 2 2 1 0 0 1 2 2 2 2 2 2 2 2 1 1 0 1 1 2 3 3 3 3 2 2 2 2 1 1 1 1 1 1 1 1 0 -0 -0 -0 -1 -1 -1 -0 1 2 2 3 3 2 2 2 2 2 2 2 2 2 2 2 2 2 2 2 2 2 2 1 1 1 1 2 3 3 4
-0 -0 -0 -0 -0 -0 -0 -1 -0 -0 -1 -1 -2 -2 -1 -0 1 2 4 3 3 2 2 1 1 1 0 -0 -0 0 1 3 4 4 4 3 2 2 2 1 1 0 0 1 1 1 0 -0 -0 -0 -0 -0 -1 -1 -0 1 2 3 3 2 2 1 2 2 2 3 3 2 2 1 1 2 2 2 2 2 2 1 0 -0 -0 0 1 2 2 2
-0 -0 0 -0 -0 -1 -1 -0 -0 -0 -0 0 0 0 -0 0 1 3 5 6 5 4 2 2 1 1 0 -0 -0 -0 0 2 3 4 5 4 3 2 1 1 1 0 -0 -0 -0 -0 -1 -1 -1 -1 -1 -1 -1 -0 -0 1 2 3 3 2 2 2 3 3 3 3 3 2 2 1 1 2 2 2 2 2 1 0 -1 -1 -1 1 3 3 3 2
1 1 1 1 2 2 2 2 2 2 1 1 1 -0 -0 -0 0 2 4 6 6 6 4 3 2 2 1 0 -0 -0 -0 1 2 4 5 4 3 1 -0 -0 -1 -1 -2 -1 -1 -1 -2 -1 -1 -1 -1 -1 -1 -0 -0 1 2 3 2 2 2 3 4 4 5 5 4 2 1 1 1 2 2 2 2 1 0 -0 -0 1 3 5 6 6 5 4
3 3 3 4 4 4 4 3 2 2 2 1 1 0 -0 -0 -0 -0 1 3 4 5 5 4 3 2 1 0 -0 -0 -0 -0 1 3 4 2 0 -1 -2 -2 -3 -3 -2 -2 -2 -1 -1 -1 -1 -1 -1 -0 -0 0 1 1 2 2 2 2 2 2 3 4 6 6 4 2 1 1 1 1 2 2 1 1 -0 0 3 7 10 11 9 7 5 4
4 4 4 4 3 2 2 1 1 1 1 1 1 0 0 -0 -0 -1 -1 -0 1 3 4 4 3 2 0 -0 -1 -1 -1 -0 1 1 1 -0 -1 -2 -2 -2 -2 -2 -2 -1 -0 -0 -0 -0 -0 -0 -0 -0 0 0 1 1 2 2 1 2 2 3 4 5 5 5 3 2 1 1 1 1 1 1 1 0 2 5 9 13 14 13 10 7 6 5
2 2 1 1 1 0 -0 -1 -0 0 1 1 0 0 -0 -0 -0 -0 -1 -1 -1 -0 1 2 1 0 -1 -1 -1 -1 -1 -1 0 0 -0 -1 -1 -1 -1 -1 -1 -1 -0 0 0 0 0 0 -0 -0 -0 0 0 0 0 1 1 1 1 1 2 2 3 4 5 4 2 1 -0 -0 0 1 1 1 -0 1 4 9 14 15 14 12 10 8 7 6
0 -0 -0 -0 -1 -1 -1 -1 -1 -0 0 -0 -0 -0 -0 -0 -0 -0 -0 -1 -1 -1 -0 0 -0 -1 -1 -1 -1 -1 -2 -1 -0 0 -0 -0 -0 0 0 0 1 1 1 1 1 0 -0 -0 -0 -0 -0 -0 -0 0 0 0 0 0 0 0 1 1 2 4 4 4 2 1 -0 -0 0 1 1 0 -1 2 6 12 14 14 13 11 9 8 8 7
-0 -0 -0 -0 -1 -1 -1 -0 -0 -0 -0 -1 -1 -1 -0 -0 -0 -0 -1 -1 -1 -1 -0 0 -0 -0 -0 -1 -1 -1 -1 -0 0 1 1 1 2 2 2 3 3 3 3 3 2 2 1 1 0 -0 -0 -0 -0 -0 -0 -0 -0 -0 -0 0 1 1 2 3 4 4 3 1 0 0 1 0 -0 -1 -1 3 8 12 13 12 10 9 8 8 7 7
-0 -0 -0 -0 0 0 0 0 0 0 -0 -1 -1 -1 -0 -0 -1 -1 -1 -1 -1 -0 1 0 0 0 -0 -0 -1 -0 0 1 2 2 3 3 3 4 5 5 6 6 6 6 6 6 6 5 4 4 2 1 -0 -1 -1 -1 -0 -0 -0 0 1 1 2 3 3 3 3 2 1 1 1 -0 -1 -3 -3 1 5 8 9 9 8 7 7 7 6 6
0 0 0 0 1 1 1 1 1 0 -0 0 0 0 -0 -0 -1 -1 -1 -0 0 1 1 1 1 1 0 0 1 1 2 2 3 4 4 4 5 5 6 7 7 8 9 9 9 10 10 10 10 9 8 7 4 2 0 0 -0 0 0 0 0 1 1 2 3 3 2 1 1 1 2 1 -0 -1 -2 -0 2 4 5 5 5 5 5 5 5 5
1 1 1 1 1 1 1 1 1 1 1 1 1 1 0 0 0 0 0 1 1 1 1 1 1 1 1 1 2 2 2 3 3 4 4 5 5 5 6 6 7 8 8 8 8 8 9 9 10 10 11 10 8 6 4 3 2 1 1 1 1 1 2 2 2 2 2 1 1 1 1 1 1 1 0 -0 1 3 4 4 4 4 4 4 4 4
Height
5363 5361 5359 5357 5356 5354 5352 5352 5351 5349 5346 5345 5345 5345 5343 5343 5343 5343 5343 5344 5345 5346 5348 5349 5350 5351 5352 5353 5354 5354 5355 5355 5356 5356 5357 5357 5358 5359 5360 5361 5362 5363 5365 5366 5368 5369 5370 5372 5374 5375 5376 5377 5379 5380 5382 5384 5385 5387 5388 5390 5391 5393 5394 5396 5397 5399 5401 5403 5407 5410 5414 5416 5420 5423 5426 5428 5431 5434 5437 5440 5443 5446 5448 5450 5453 5455
5355 5353 5351 5349 5347 5345 5343 5342 5342 5340 5337 5335 5335 5334 5333 5333 5332 5332 5333 5334 5335 5337 5338 5340 5341 5343 5344 5345 5346 5347 5348 5348 5349 5350 5350 5351 5352 5353 5354 5355 5356 5357 5359 5360 5362 5363 5365 5366 5368 5369 5370 5371 5373 5374 5376 5377 5379 5380 5382 5384 5385 5386 5388 5390 5391 5393 5394 5396 5399 5401 5405 5409 5412 5416 5420 5422 5425 5427 5430 5433 5436 5439 5441 5444 5447 5449
5348 5345 5343 5342 5340 5338 5335 5333 5332 5331 5329 5326 5325 5324 5323 5323 5322 5322 5323 5324 5325 5327 5329 5331 5332 5334 5336 5337 5339 5340 5340 5341 5342 5343 5343 5344 5345 5346 5347 5349 5350 5351 5353 5354 5356 5357 5359 5360 5362 5364 5365 5366 5367 5369 5370 5371 5373 5375 5376 5378 5379 5380 5382 5384 5385 5387 5389 5390 5391 5393 5396 5400 5404 5408 5412 5415 5418 5421 5424 5427 5430 5432 5435 5438 5441 5443
5342 5339 5336 5334 5332 5330 5328 5326 5323 5321 5320 5318 5316 5314 5314 5313 5312 5312 5313 5314 5315 5317 5319 5321 5323 5325 5327 5329 5331 5332 5333 5334 5335 5335 5337 5338 5339 5340 5341 5343 5344 5345 5347 5349 5350 5352 5354 5355 5356 5358 5359 5360 5362 5363 5364 5366 5367 5369 5370 5371 5373 5374 5376 5377 5379 5381 5383 5384 5386 5387 5389 5391 5395 5400 5404 5408 5412 5415 5418 5421 5424 5426 5429 5432 5435 5437
5335 5333 5330 5327 5325 5322 5320 5318 5315 5313 5310 5309 5307 5305 5304 5303 5302 5302 5303 5304 5305 5307 5309 5311 5314 5316 5318 5320 5322 5324 5325 5326 5327 5328 5330 5331 5332 5334 5335 5336 5338 5340 5341 5343 5344 5346 5348 5349 5350 5352 5353 5355 5356 5357 5358 5360 5361 5363 5364 5366 5367 5369 5370 5372 5373 5375 5377 5379 5380 5382 5383 5385 5388 5392 5397 5401 5405 5408 5411 5415 5418 5420 5423 5426 5429 5431
5329 5326 5324 5321 5318 5315 5313 5310 5307 5305 5302 5299 5297 5296 5295 5294 5293 5293 5293 5294 5296 5297 5299 5302 5304 5307 5309 5311 5313 5315 5317 5318 5320 5321 5322 5324 5325 5327 5328 5330 5331 5333 5335 5336 5338 5340 5341 5343 5344 5346 5347 5349 5350 5351 5352 5354 5355 5357 5358 5360 5361 5363 5365 5366 5368 5369 5371 5373 5375 5376 5378 5380 5382 5385 5389 5394 5398 5401 5404 5408 5411 5414 5417 5420 5423 5426
5322 5320 5318 5315 5311 5308 5305 5303 5300 5297 5294 5290 5288 5286 5285 5285 5284 5284 5284 5285 5286 5288 5290 5292 5295 5298 5300 5302 5304 5306 5308 5310 5312 5313 5315 5316 5318 5320 5321 5323 5325 5326 5328 5330 5331 5333 5335 5336 5338 5340 5341 5342 5344 5345 5346 5347 5349 5350 5352 5354 5355 5357 5359 5360 5362 5364 5365 5367 5369 5370 5373 5375 5376 5379 5383 5387 5391 5394 5398 5401 5404 5407 5411 5414 5417 5420
5315 5312 5310 5308 5304 5300 5298 5296 5293 5290 5286 5282 5279 5277 5276 5276 5276 5276 5276 5276 5277 5279 5280 5283 5285 5288 5291 5293 5295 5297 5300 5302 5304 5305 5307 5309 5310 5312 5314 5316 5318 5320 5321 5323 5325 5326 5328 5330 5331 5333 5334 5336 5337 5338 5340 5341 5342 5344 5346 5348 5350 5351 5353 5355 5356 5357 5359 5360 5362 5365 5367 5369 5371 5374 5376 5380 5384 5388 5391 5394 5397 5400 5404 5408 5411 5414
5309 5305 5303 5300 5298 5294 5290 5288 5286 5284 5280 5276 5272 5270 5268 5267 5267 5268 5268 5269 5270 5270 5272 5273 5276 5279 5281 5284 5286 5288 5290 5293 5295 5297 5299 5301 5303 5305 5307 5309 5311 5313 5314 5316 5318 5320 5321 5323 5325 5326 5328 5329 5330 5332 5333 5335 5336 5338 5339 5341 5343 5345 5346 5348 5350 5351 5352 5354 5356 5359 5361 5364 5366 5368 5370 5373 5377 5381 5385 5388 5391 5394 5397 5401 5405 5408
5304 5300 5297 5294 5291 5289 5285 5281 5279 5277 5275 5270 5267 5264 5262 5260 5259 5259 5260 5261 5262 5263 5264 5265 5266 5268 5271 5275 5277 5280 5281 5284 5286 5289 5291 5293 5295 5297 5300 5301 5304 5305 5307 5309 5311 5312 5314 5316 5317 5319 5321 5322 5324 5325 5327 5328 5330 5331 5332 5334 5335 5338 5340 5341 5343 5345 5346 5349 5351 5353 5356 5358 5361 5363 5365 5368 5371 5374 5378 5381 5385 5388 5391 5395 5399 5402
5298 5295 5292 5289 5285 5283 5280 5276 5274 5271 5269 5265 5262 5259 5257 5255 5252 5251 5250 5252 5253 5255 5256 5256 5257 5259 5261 5265 5269 5271 5273 5275 5277 5280 5283 5285 5287 5290 5292 5294 5296 5298 5300 5301 5303 5305 5307 5309 5310 5312 5314 5315 5317 5318 5320 5321 5322 5324 5325 5326 5328 5330 5332 5334 5336 5338 5340 5342 5345 5347 5350 5353 5355 5358 5360 5362 5365 5368 5372 5375 5379 5382 5385 5389 5393 5396
5293 5290 5286 5283 5280 5278 5275 5272 5269 5266 5263 5260 5256 5253 5251 5250 5248 5245 5244 5244 5245 5247 5248 5249 5250 5252 5254 5256 5260 5262 5265 5266 5269 5272 5275 5277 5280 5282 5285 5287 5290 5291 5293 5295 5296 5298 5300 5302 5304 5305 5307 5308 5309 5311 5312 5314 5315 5316 5318 5319 5321 5323 5325 5327 5329 5331 5333 5336 5339 5341 5345 5347 5350 5352 5355 5357 5360 5363 5366 5370 5373 5376 5380 5383 5387 5391
5287 5284 5281 5277 5275 5272 5270 5266 5263 5260 5258 5255 5252 5249 5246 5244 5243 5241 5240 5239 5239 5240 5240 5241 5243 5245 5247 5249 5251 5253 5256 5258 5261 5264 5267 5270 5273 5276 5278 5280 5282 5284 5286 5287 5289 5291 5293 5295 5297 5298 5300 5300 5301 5303 5305 5306 5307 5309 5310 5312 5314 5315 5318 5320 5322 5325 5327 5330 5333 5335 5339 5342 5345 5347 5350 5353 5355 5358 5361 5364 5367 5370 5374 5378 5381 5385
5282 5279 5276 5273 5270 5267 5265 5261 5258 5255 5253 5251 5248 5245 5241 5240 5238 5237 5235 5234 5234 5234 5235 5235 5236 5238 5241 5243 5244 5245 5248 5250 5254 5257 5260 5263 5266 5269 5271 5272 5274 5276 5278 5280 5282 5284 5286 5288 5289 5290 5292 5293 5294 5295 5297 5298 5300 5301 5303 5305 5306 5308 5310 5313 5315 5318 5320 5323 5326 5330 5333 5336 5340 5342 5345 5348 5350 5353 5356 5359 5362 5365 5368 5372 5376 5380
5278 5275 5271 5268 5265 5263 5260 5257 5254 5251 5248 5246 5244 5240 5238 5236 5235 5233 5231 5229 5229 5229 5229 5229 5230 5232 5235 5236 5238 5239 5242 5244 5247 5250 5253 5256 5260 5262 5264 5265 5267 5269 5271 5273 5275 5277 5279 5280 5281 5282 5284 5285 5286 5287 5288 5290 5291 5293 5295 5297 5299 5301 5303 5306 5308 5311 5314 5317 5320 5324 5327 5330 5334 5338 5341 5344 5346 5349 5351 5354 5357 5360 5363 5366 5370 5374
5274 5270 5266 5263 5260 5258 5256 5253 5250 5247 5244 5242 5240 5238 5235 5232 5230 5229 5227 5225 5225 5224 5224 5224 5225 5226 5228 5231 5232 5234 5237 5238 5240 5242 5245 5249 5253 5255 5257 5258 5259 5262 5265 5266 5268 5269 5271 5272 5273 5274 5275 5277 5278 5279 5280 5282 5284 5286 5288 5290 5292 5294 5296 5299 5301 5304 5307 5310 5314 5317 5321 5325 5329 5333 5336 5339 5342 5344 5347 5350 5352 5355 5358 5361 5365 5369
5269 5265 5262 5258 5255 5253 5251 5249 5246 5243 5241 5239 5236 5234 5231 5229 5227 5225 5224 5222 5221 5220 5220 5220 5220 5221 5223 5225 5229 5231 5231 5231 5232 5234 5238 5242 5245 5248 5250 5250 5251 5254 5257 5259 5260 5262 5263 5264 5265 5266 5267 5269 5270 5271 5272 5274 5276 5278 5280 5283 5285 5287 5290 5292 5295 5297 5300 5304 5308 5312 5316 5320 5324 5328 5332 5335 5338 5340 5343 5345 5348 5350 5353 5356 5360 5363
5264 5260 5257 5254 5251 5249 5247 5245 5242 5240 5237 5234 5231 5229 5228 5226 5224 5222 5220 5219 5218 5217 5216 5216 5216 5217 5219 5221 5224 5226 5226 5225 5225 5228 5232 5236 5240 5242 5243 5243 5244 5246 5249 5252 5253 5254 5255 5256 5257 5258 5259 5261 5262 5264 5265 5267 5269 5271 5274 5276 5278 5280 5283 5285 5288 5290 5294 5298 5302 5306 5310 5315 5319 5324 5327 5330 5334 5336 5339 5342 5344 5347 5349 5352 5355 5358
5259 5256 5253 5250 5247 5244 5243 5241 5239 5236 5233 5230 5227 5225 5223 5222 5221 5219 5217 5216 5215 5214 5213 5213 5213 5214 5216 5218 5220 5221 5220 5220 5220 5223 5228 5231 5234 5236 5237 5237 5237 5240 5242 5245 5246 5247 5247 5248 5249 5250 5252 5253 5255 5257 5258 5260 5263 5265 5267 5269 5272 5274 5276 5279 5281 5285 5288 5292 5296 5301 5305 5310 5315 5319 5322 5326 5329 5332 5335 5338 5340 5343 5345 5348 5351 5354
5254 5252 5250 5246 5242 5240 5238 5237 5235 5232 5229 5226 5224 5221 5220 5219 5217 5216 5215 5213 5212 5211 5210 5211 5211 5212 5213 5214 5216 5217 5216 5216 5217 5220 5223 5226 5229 5231 5231 5231 5231 5233 5236 5238 5239 5240 5240 5241 5243 5245 5245 5247 5249 5250 5252 5254 5257 5259 5261 5264 5266 5268 5270 5273 5276 5279 5282 5286 5291 5296 5301 5305 5310 5314 5318 5321 5325 5328 5331 5334 5337 5339 5342 5344 5347 5350
5249 5247 5245 5243 5239 5236 5234 5233 5231 5229 5226 5223 5220 5218 5217 5215 5215 5213 5212 5211 5210 5209 5209 5210 5210 5210 5210 5211 5212 5213 5212 5213 5215 5217 5219 5221 5224 5225 5226 5225 5226 5228 5230 5231 5232 5233 5234 5235 5236 5238 5240 5241 5243 5245 5247 5249 5251 5253 5256 5258 5260 5262 5265 5267 5270 5274 5277 5281 5286 5291 5296 5301 5305 5310 5313 5317 5320 5324 5327 5330 5333 5335 5338 5340 5343 5346
5245 5243 5241 5239 5236 5233 5230 5229 5228 5226 5224 5220 5218 5216 5214 5213 5212 5211 5210 5209 5208 5208 5208 5208 5208 5208 5208 5208 5209 5210 5209 5211 5212 5213 5215 5217 5220 5221 5221 5221 5221 5223 5225 5226 5227 5228 5228 5230 5232 5234 5235 5237 5239 5240 5242 5244 5246 5248 5250 5253 5255 5257 5260 5262 5265 5268 5272 5276 5281 5287 5292 5297 5301 5305 5309 5313 5316 5320 5323 5326 5329 5332 5334 5337 5340 5343
5242 5239 5237 5235 5233 5230 5228 5226 5224 5222 5220 5218 5216 5214 5212 5211 5210 5208 5208 5207 5206 5206 5205 5205 5205 5206 5206 5206 5207 5207 5208 5209 5209 5210 5211 5214 5216 5217 5217 5217 5218 5220 5221 5222 5223 5224 5225 5226 5228 5230 5231 5233 5235 5236 5238 5240 5242 5244 5246 5248 5250 5253 5255 5258 5260 5264 5268 5272 5277 5283 5288 5293 5297 5301 5305 5309 5312 5316 5319 5322 5325 5328 5330 5333 5336 5339
5240 5237 5234 5232 5230 5227 5225 5223 5221 5219 5217 5215 5214 5212 5210 5209 5208 5206 5206 5205 5204 5203 5203 5203 5204 5204 5204 5205 5205 5206 5206 5206 5206 5207 5208 5210 5212 5214 5214 5214 5215 5216 5217 5219 5219 5220 5221 5223 5224 5226 5227 5229 5231 5232 5234 5236 5238 5240 5242 5244 5246 5248 5250 5253 5256 5260 5264 5269 5274 5279 5284 5289 5293 5298 5301 5305 5308 5312 5315 5318 5321 5324 5327 5329 5332 5335
5237 5234 5231 5229 5226 5224 5222 5220 5218 5216 5214 5212 5211 5209 5208 5207 5206 5205 5204 5203 5202 5201 5201 5201 5202 5203 5203 5203 5204 5205 5204 5204 5204 5205 5206 5207 5209 5210 5211 5212 5212 5213 5215 5215 5216 5217 5218 5220 5221 5222 5224 5225 5227 5229 5231 5233 5235 5236 5238 5240 5242 5244 5247 5250 5253 5257 5261 5265 5270 5275 5281 5285 5290 5294 5298 5301 5305 5308 5311 5315 5318 5320 5323 5326 5328 5331
5234 5231 5228 5226 5223 5221 5219 5217 5215 5213 5211 5209 5208 5206 5205 5205 5204 5204 5203 5201 5200 5200 5200 5200 5201 5201 5202 5202 5203 5203 5203 5203 5203 5203 5204 5205 5207 5208 5209 5209 5210 5211 5212 5213 5214 5215 5215 5217 5218 5220 5221 5223 5225 5226 5228 5229 5231 5232 5234 5236 5239 5241 5244 5247 5250 5254 5259 5263 5268 5273 5278 5283 5287 5291 5295 5298 5301 5304 5307 5311 5314 5317 5320 5322 5325 5328
5231 5228 5225 5223 5220 5218 5216 5214 5212 5210 5209 5207 5205 5204 5203 5203 5202 5201 5200 5200 5199 5198 5199 5199 5200 5200 5201 5201 5201 5201 5201 5201 5201 5202 5202 5203 5205 5206 5207 5208 5208 5209 5210 5211 5212 5212 5213 5214 5215 5217 5218 5220 5221 5222 5224 5226 5227 5229 5231 5233 5236 5238 5241 5245 5248 5252 5256 5261 5266 5271 5275 5280 5284 5288 5291 5295 5298 5301 5304 5307 5310 5313 5316 5319 5322 5325
5229 5225 5223 5220 5218 5215 5214 5212 5210 5208 5206 5205 5203 5202 5201 5200 5200 5200 5199 5198 5198 5197 5198 5198 5199 5200 5200 5200 5200 5200 5200 5200 5200 5200 5201 5202 5204 5205 5205 5206 5207 5207 5208 5209 5210 5210 5211 5212 5213 5215 5216 5217 5219 5220 5222 5223 5225 5227 5229 5231 5233 5236 5239 5242 5246 5250 5254 5259 5264 5269 5273 5277 5281 5285 5288 5292 5295 5298 5300 5304 5306 5310 5313 5316 5320 5323
5226 5223 5220 5218 5215 5213 5211 5209 5208 5206 5204 5203 5201 5200 5199 5199 5198 5198 5197 5197 5196 5196 5197 5197 5198 5198 5198 5199 5199 5199 5199 5199 5199 5199 5200 5201 5202 5203 5204 5205 5205 5206 5207 5207 5208 5209 5210 5210 5211 5212 5214 5215 5217 5218 5220 5221 5223 5224 5226 5229 5231 5234 5237 5241 5245 5249 5253 5257 5262 5267 5271 5275 5279 5282 5285 5289 5292 5295 5297 5300 5303 5306 5310 5313 5316 5320
5224 5221 5218 5215 5213 5211 5209 5207 5205 5204 5203 5201 5200 5199 5197 5197 5196 5196 5195 5195 5195 5196 5196 5196 5196 5196 5197 5197 5198 5198 5198 5198 5198 5198 5198 5199 5200 5201 5202 5203 5204 5205 5205 5206 5207 5208 5208 5209 5210 5211 5212 5214 5215 5216 5218 5219 5220 5222 5225 5227 5230 5233 5236 5240 5243 5248 5252 5256 5260 5265 5269 5273 5276 5280 5283 5286 5289 5291 5294 5297 5300 5304 5307 5310 5313 5316
5221 5219 5216 5214 5211 5209 5207 5205 5204 5202 5201 5200 5198 5197 5196 5195 5195 5194 5194 5194 5194 5195 5195 5194 5194 5195 5195 5196 5196 5197 5197 5196 5196 5197 5197 5198 5199 5200 5201 5202 5203 5204 5205 5205 5206 5207 5207 5207 5208 5209 5210 5212 5213 5215 5216 5217 5219 5221 5223 5226 5229 5232 5235 5239 5243 5247 5251 5255 5259 5263 5267 5270 5274 5277 5280 5283 5285 5288 5291 5294 5297 5300 5304 5307 5310 5312
5218 5216 5214 5211 5210 5208 5206 5204 5203 5201 5200 5199 5197 5196 5195 5195 5194 5193 5193 5193 5193 5193 5192 5192 5193 5193 5194 5195 5195 5196 5196 5195 5195 5195 5196 5197 5198 5198 5199 5200 5202 5203 5204 5205 5205 5206 5206 5207 5207 5208 5209 5210 5211 5213 5215 5216 5218 5220 5223 5225 5228 5231 5235 5238 5242 5246 5250 5255 5258 5261 5265 5269 5272 5275 5278 5280 5283 5286 5289 5291 5294 5297 5300 5303 5306 5309
5215 5213 5211 5209 5208 5206 5204 5203 5201 5200 5199 5198 5197 5196 5195 5194 5193 5193 5192 5192 5191 5191 5191 5191 5192 5192 5193 5193 5194 5195 5195 5195 5195 5195 5195 5196 5197 5197 5198 5199 5200 5202 5203 5204 5204 5205 5205 5206 5206 5207 5208 5209 5210 5212 5214 5215 5217 5220 5222 5225 5227 5230 5234 5238 5241 5245 5250 5254 5257 5260 5264 5267 5270 5273 5275 5278 5281 5284 5286 5289 5292 5295 5297 5300 5303 5306
5213 5211 5209 5208 5206 5205 5203 5202 5200 5199 5198 5197 5196 5195 5194 5194 5193 5192 5192 5191 5191 5190 5190 5191 5191 5191 5192 5193 5193 5193 5194 5194 5194 5194 5195 5195 5196 5196 5197 5198 5199 5201 5202 5203 5204 5204 5205 5205 5205 5206 5207 5208 5210 5211 5213 5215 5216 5219 5221 5224 5227 5230 5233 5237 5240 5245 5249 5252 5255 5258 5261 5265 5268 5270 5273 5276 5279 5281 5284 5287 5290 5292 5295 5298 5300 5303
5211 5209 5207 5206 5205 5204 5202 5201 5200 5199 5198 5197 5196 5195 5194 5194 5193 5192 5192 5191 5191 5190 5190 5190 5190 5191 5191 5192 5193 5193 5193 5193 5193 5193 5194 5194 5195 5195 5196 5197 5198 5199 5200 5202 5203 5203 5204 5204 5205 5205 5206 5208 5209 5210 5212 5214 5216 5218 5220 5223 5226 5229 5233 5236 5240 5244 5248 5251 5254 5256 5260 5262 5265 5268 5271 5273 5276 5279 5281 5284 5287 5290 5293 5296 5299 5301
5209 5208 5206 5205 5204 5203 5202 5201 5200 5199 5198 5197 5196 5195 5195 5194 5193 5193 5192 5191 5191 5190 5190 5190 5190 5190 5191 5192 5192 5192 5192 5192 5193 5193 5193 5194 5194 5195 5195 5196 5197 5198 5199 5200 5201 5202 5203 5204 5204 5205 5206 5207 5208 5210 5211 5213 5215 5217 5220 5222 5225 5228 5231 5235 5239 5243 5246 5249 5252 5255 5258 5260 5263 5266 5268 5271 5274 5276 5279 5282 5285 5288 5291 5294 5297 5299
5208 5207 5206 5205 5204 5203 5202 5201 5200 5199 5198 5197 5196 5195 5195 5194 5193 5193 5192 5192 5191 5191 5190 5190 5190 5191 5191 5191 5191 5192 5192 5192 5192 5193 5193 5194 5194 5195 5195 5196 5196 5197 5198 5199 5200 5201 5202 5203 5204 5204 5205 5206 5208 5209 5210 5212 5215 5216 5219 5221 5224 5227 5230 5234 5238 5241 5245 5248 5250 5253 5256 5259 5261 5264 5266 5269 5271 5274 5277 5280 5283 5285 5288 5291 5295 5297
5207 5206 5205 5205 5204 5203 5202 5201 5200 5199 5198 5198 5197 5196 5195 5195 5194 5193 5193 5192 5192 5191 5191 5191 5191 5191 5190 5190 5190 5191 5191 5192 5192 5193 5193 5194 5195 5195 5195 5195 5196 5197 5198 5198 5199 5200 5201 5202 5203 5204 5205 5205 5207 5208 5210 5212 5214 5216 5218 5220 5224 5227 5230 5234 5237 5240 5244 5246 5249 5251 5254 5257 5259 5262 5265 5267 5270 5272 5275 5278 5281 5284 5286 5290 5292 5295
5207 5206 5205 5204 5204 5203 5202 5201 5200 5200 5199 5198 5198 5197 5196 5195 5194 5194 5193 5193 5192 5192 5191 5191 5191 5191 5190 5190 5190 5190 5191 5192 5192 5193 5193 5194 5194 5195 5195 5195 5195 5196 5197 5198 5199 5200 5200 5201 5202 5203 5204 5205 5206 5208 5209 5211 5213 5215 5217 5220 5223 5226 5229 5233 5236 5239 5242 5245 5247 5250 5252 5255 5257 5260 5263 5265 5268 5271 5274 5276 5279 5282 5285 5288 5290 5293
5207 5206 5205 5205 5204 5203 5202 5201 5201 5200 5199 5198 5197 5196 5195 5195 5194 5193 5193 5192 5192 5192 5192 5191 5191 5191 5190 5190 5190 5190 5190 5191 5192 5192 5193 5193 5194 5194 5195 5195 5195 5195 5196 5197 5198 5199 5200 5200 5201 5202 5203 5205 5206 5207 5209 5211 5213 5215 5217 5220 5222 5225 5228 5232 5235 5238 5241 5244 5246 5248 5250 5253 5256 5259 5261 5264 5267 5270 5272 5275 5278 5280 5283 5285 5288 5291
5208 5207 5206 5205 5204 5203 5203 5202 5200 5200 5199 5198 5197 5196 5195 5194 5194 5193 5193 5192 5192 5192 5192 5191 5191 5191 5190 5190 5190 5190 5190 5191 5191 5192 5193 5193 5194 5194 5194 5195 5195 5195 5196 5197 5198 5199 5199 5200 5201 5202 5203 5204 5205 5207 5209 5210 5212 5215 5217 5219 5222 5225 5228 5231 5234 5237 5240 5242 5245 5247 5249 5252 5255 5257 5260 5263 5265 5268 5271 5274 5276 5279 5282 5285 5287 5290
5208 5207 5206 5205 5205 5204 5203 5201 5200 5199 5199 5198 5197 5196 5195 5194 5193 5193 5193 5192 5192 5192 5192 5191 5191 5190 5190 5190 5190 5190 5190 5190 5191 5192 5193 5193 5194 5194 5194 5195 5195 5195 5196 5196 5197 5198 5199 5200 5200 5201 5203 5204 5205 5207 5208 5210 5212 5214 5216 5219 5221 5224 5227 5230 5234 5236 5239 5241 5244 5246 5248 5250 5253 5256 5259 5261 5264 5267 5270 5272 5275 5278 5281 5285 5287 5290
5208 5207 5206 5205 5205 5204 5202 5201 5200 5199 5198 5197 5196 5195 5195 5194 5193 5192 5192 5192 5192 5192 5192 5191 5191 5190 5190 5190 5190 5190 5190 5190 5190 5191 5192 5193 5193 5193 5194 5194 5195 5195 5196 5196 5197 5198 5198 5199 5200 5201 5203 5204 5205 5207 5208 5210 5212 5214 5216 5219 5221 5224 5226 5230 5232 5235 5237 5240 5242 5245 5247 5249 5252 5255 5257 5260 5263 5266 5269 5271 5275 5277 5280 5283 5286 5289
5209 5208 5206 5205 5205 5203 5202 5201 5200 5199 5198 5197 5196 5195 5194 5194 5193 5192 5192 5191 5191 5191 5191 5191 5190 5190 5190 5190 5189 5189 5190 5190 5190 5191 5192 5192 5192 5193 5193 5194 5194 5195 5196 5196 5197 5197 5198 5199 5200 5201 5203 5204 5205 5207 5209 5210 5212 5214 5216 5218 5221 5223 5226 5229 5232 5234 5236 5239 5241 5244 5246 5248 5251 5254 5256 5259 5262 5265 5267 5270 5274 5276 5279 5281 5284 5287
5209 5208 5206 5205 5204 5202 5201 5200 5199 5198 5197 5196 5195 5195 5194 5193 5193 5192 5191 5191 5191 5190 5190 5190 5190 5190 5190 5189 5189 5189 5189 5190 5190 5191 5192 5192 5192 5193 5193 5194 5195 5195 5196 5196 5197 5198 5198 5199 5200 5201 5203 5204 5205 5207 5209 5210 5212 5214 5216 5218 5220 5223 5225 5228 5231 5233 5235 5238 5240 5243 5245 5247 5250 5252 5255 5258 5260 5263 5266 5269 5272 5275 5278 5280 5282 5285
5208 5206 5205 5204 5202 5201 5200 5198 5197 5196 5195 5195 5194 5194 5193 5193 5192 5192 5191 5191 5190 5190 5190 5190 5190 5190 5189 5189 5189 5190 5190 5190 5190 5191 5192 5192 5193 5193 5194 5194 5195 5195 5196 5197 5197 5198 5199 5200 5200 5201 5203 5204 5205 5207 5208 5210 5212 5214 5216 5218 5220 5222 5225 5228 5230 5233 5235 5237 5240 5242 5244 5246 5249 5251 5254 5256 5259 5262 5265 5268 5271 5274 5276 5278 5281 5283
5207 5205 5204 5202 5201 5200 5198 5197 5196 5195 5195 5194 5193 5193 5192 5192 5192 5191 5191 5190 5190 5190 5189 5189 5189 5189 5189 5190 5190 5190 5190 5190 5191 5191 5192 5193 5193 5194 5194 5195 5195 5196 5197 5197 5198 5199 5200 5200 5201 5202 5203 5204 5205 5207 5208 5210 5212 5214 5215 5218 5220 5222 5225 5227 5230 5232 5235 5237 5239 5241 5243 5246 5248 5250 5253 5255 5258 5261 5264 5267 5270 5272 5275 5277 5279 5281
5205 5204 5202 5201 5200 5198 5197 5196 5195 5194 5194 5193 5192 5192 5191 5191 5191 5191 5190 5190 5190 5189 5189 5189 5189 5190 5190 5190 5190 5190 5191 5191 5192 5192 5193 5193 5194 5195 5195 5196 5197 5197 5198 5199 5200 5200 5201 5202 5202 5203 5204 5205 5206 5207 5209 5210 5212 5214 5215 5218 5220 5222 5224 5227 5229 5232 5234 5236 5238 5240 5243 5245 5247 5250 5252 5255 5257 5260 5263 5266 5268 5271 5273 5275 5277 5280
5204 5202 5201 5200 5198 5197 5196 5195 5194 5193 5193 5192 5192 5191 5191 5191 5191 5190 5190 5190 5190 5190 5190 5190 5190 5190 5190 5191 5191 5191 5192 5192 5193 5193 5194 5194 5195 5196 5196 5197 5198 5199 5199 5200 5201 5201 5202 5203 5204 5205 5205 5206 5207 5208 5209 5210 5212 5214 5216 5218 5220 5222 5224 5227 5229 5231 5234 5235 5238 5240 5242 5244 5246 5249 5251 5254 5257 5259 5262 5265 5267 5269 5271 5274 5275 5278
5202 5201 5200 5198 5197 5196 5195 5194 5193 5192 5192 5192 5191 5191 5191 5191 5190 5190 5190 5190 5190 5190 5190 5190 5190 5191 5191 5192 5192 5192 5193 5193 5194 5195 5195 5195 5196 5197 5197 5198 5199 5199 5200 5201 5201 5202 5203 5204 5205 5205 5206 5207 5208 5209 5210 5211 5213 5215 5216 5218 5220 5222 5224 5226 5229 5231 5233 5235 5237 5239 5241 5244 5246 5248 5251 5253 5256 5259 5261 5263 5266 5268 5270 5272 5275 5276
5201 5200 5199 5197 5196 5195 5194 5193 5193 5192 5192 5191 5191 5191 5191 5191 5190 5190 5190 5190 5190 5191 5191 5191 5192 5192 5192 5193 5193 5194 5194 5195 5195 5195 5196 5196 5197 5197 5198 5198 5199 5200 5200 5200 5201 5202 5202 5203 5204 5205 5206 5208 5209 5210 5211 5212 5214 5215 5217 5219 5220 5222 5224 5226 5229 5231 5233 5235 5237 5239 5241 5243 5246 5248 5250 5253 5255 5258 5260 5262 5265 5267 5269 5271 5274 5275